Back to catalog

ONEWEB-0290

AliveCommunicationsPO
NORAD 49080·PAYLOAD·🇬🇧 United Kingdom

Launched Aug 21, 2021 from Baikonur Cosmodrome

Loading…

Next Passes (next 24 hours)

TLE

FreshSource: CelesTrak SupGP

Epoch: Sep 14, 2026, 10:20 UTC

1 49080C 21075F   26257.43072174 -.00002216  00000+0 -57147-2 0  2571
2 49080  87.9210 348.1388 0001429  93.5767  35.7601 13.17651635    19

Track ONEWEB-0290 in real time with AllMySat

Download on the App Store